星链-34166 (STARLINK-34166)

导读

STARLINK-34166是美国SpaceX公司星链星座的一颗低轨通信卫星,于2025年5月27日发射入轨。星链项目旨在为全球提供高速宽带互联网服务,尤其覆盖偏远欠发达地区。该卫星采用平板设计、氪霍尔推进器,具备自主避撞能力,寿命末期会主动离轨坠入大气层焚毁,属于Starlink第二代组网卫星,助力完成全球低轨星座部署。

Basic Information
目录编号:
64158
目录名称:
STARLINK-34166
国际标识:
2025-112N
轨道中心:
EARTH
卫星名称:
星链-34166
卫星全名:
星链-34166 (STARLINK-34166)
卫星状态:
在轨 (已飞行383 天)
发射日期:
2025-05-27 UTC
国别 :
美国 (US)
星等 :
--
Orbit Information
数据来源 国际轨道数据 AOE轨道数据
星历时间 2026-06-14T04:29:03+0800
8小时前
查看轨道信息
2026-06-09T00:00:00+0800
5天前
查看轨道信息
半长轴 6927.573km 6927.633km
偏心率 0.0001025 0.0001116
轨道倾角 97.363° 97.389°
近地点辐角 105.193° 115.507°
升交点赤经 215.364° 210.412°
平近点角 254.941° 227.922°
近地点 548.725km 548.722km
远地点 550.147km 550.27km
周期 95.638分钟 95.639分钟
每日圈数 15.056746 15.056551
Detailed Information
固有亮度:
5
最大亮度:
2.5
卫星平台:
Starlink V1.0
覆盖范围:
全球
运营商:
太空探索技术公司
运营商所在国:
美国
制造商(研发单位):
太空探索技术公司
制造商所在国:
美国
使用方式:
暂无
Satellite Introduction
Starlink 计划是 SpaceX 推出的全球卫星互联网项目,通过发射低轨道卫星,为全球尤其是偏远地区提供高速、低延迟的互联网服务。自 2019 年起,Starlink 已部署数千颗卫星,旨在缩小全球数字鸿沟,推动互联网普及。该项目还为军事、航空等行业提供通信支持,带来广泛经济效益。
2D Orbit Map
3D Orbit Map
Orbit Altitude Analysis Chart
Orbit Inclination Analysis Chart
Orbit Comprehensive Analysis Chart
View Comprehensive Chart